(74) Galatea
ephemeris date magn radius delta ra dec elong phase
Today18 Jul 202514.02.337 AU3.140 AU05h32m+20°51'31.7°13.2°
Opposition15 Jan 202612.72.777 AU1.797 AU07h45m+14°53'173.7°2.2°
(74) Galatea - 2025-07-18
astro.vanbuitenen.nl


 
-1 year
-1 month
-1 day
Now
+1 day
+1 month
+1 year

The interactive orbit chart above shows the body's path through the solar system and its position at the given date. Green and blue lines are shown perpendicular to the ecliptic plane: Green if the path is above the ecliptic plane, blue if it is below. (Left-click and drag to rotate the view; Right-click and drag to move the view; Use scroll wheel to zoom in our out.)

The orbital elements of Galatea are:

            e (Eccentricity)                : 0.2362803
            a (Semimajor axis)              : 2.7803335
            i (Inclination)                 : 4.07194
            Ω (Longitude of ascending node) : 197.11338
            ω (Argument of perihelion)      : 174.88453
            M (Mean anomaly)                : 21.84003
            Epoch                           : 2025 May 05

            L (Longitude of perihelion)     : 192.01075
            B (Latitude of perihelion)      : 0.36276
            P (Orbital period in years)     : 4.64            
        

The light curve chart below shows the estimated development of the minor planet's magnitude.


The all-sky chart below shows the path of the minor planet over the same period as the light curve. The current position is marked yellow.





The following chart shows the path of the minor planet in the next few days. The field of view is optimized for (~10x50) binoculars and finderscopes. A more printer-friendly version of the same chart can be found below.




Ephemerides:
Date       Time       RA (2000)    DEC (2000)    delta   radius  elong  phase   PA    magn
2025-07-18 00:00 UT   05 32 57.2   +20 51 26     3.140    2.337   31.7   13.2   263   14.0 
2025-07-18 22:50 UT   05 34 50.8   +20 51 48     3.136    2.339   32.2   13.4   264   14.0 
2025-07-19 00:00 UT   05 34 56.6   +20 51 49     3.136    2.339   32.2   13.4   264   14.0 
2025-07-20 00:00 UT   05 36 55.7   +20 52 05     3.131    2.341   32.7   13.6   264   14.0 
2025-07-21 00:00 UT   05 38 54.5   +20 52 16     3.127    2.344   33.2   13.7   264   14.0 
2025-07-22 00:00 UT   05 40 52.9   +20 52 21     3.123    2.346   33.7   13.9   264   14.0 
2025-07-23 00:00 UT   05 42 51.0   +20 52 19     3.118    2.348   34.2   14.1   265   14.1 
2025-07-24 00:00 UT   05 44 48.7   +20 52 12     3.114    2.350   34.7   14.2   265   14.1 
2025-07-25 00:00 UT   05 46 46.1   +20 51 58     3.109    2.352   35.1   14.4   265   14.1 
2025-07-26 00:00 UT   05 48 43.1   +20 51 39     3.104    2.354   35.6   14.6   265   14.1 
2025-07-27 00:00 UT   05 50 39.8   +20 51 14     3.099    2.357   36.1   14.7   266   14.1 
2025-07-28 00:00 UT   05 52 36.0   +20 50 43     3.094    2.359   36.7   14.9   266   14.1 
2025-07-29 00:00 UT   05 54 31.8   +20 50 06     3.089    2.361   37.2   15.1   266   14.1 
2025-07-30 00:00 UT   05 56 27.3   +20 49 23     3.084    2.363   37.7   15.2   266   14.1 
2025-07-31 00:00 UT   05 58 22.3   +20 48 35     3.079    2.365   38.2   15.4   266   14.1 
2025-08-01 00:00 UT   06 00 17.0   +20 47 41     3.073    2.368   38.7   15.5   267   14.1 
2025-08-02 00:00 UT   06 02 11.2   +20 46 42     3.068    2.370   39.2   15.7   267   14.1 
2025-08-03 00:00 UT   06 04 05.0   +20 45 37     3.062    2.372   39.7   15.9   267   14.1 
2025-08-04 00:00 UT   06 05 58.3   +20 44 27     3.057    2.374   40.2   16.0   267   14.1 
2025-08-05 00:00 UT   06 07 51.2   +20 43 11     3.051    2.377   40.7   16.2   268   14.1 


    Terminology:
            
    delta:  distance between minor planet and earth in AU
    radius: distance between minor planet and sun in AU
    magn:   magnitude (brightness) estimate    
    ra:     right ascension in hours (24h = 360deg)
    dec:    declination in degrees
    elong:  elongation in degrees (angle sun-earth-minor planet)    
    phase:  phase angle in degrees (angle sun-minor planet-earth)        
    AU:     Astronomical Unit (mean distance between earth and sun: 149597870.7 km
    

Orbital elements provided by the MPC (Minor Planet Center).
Calculations by a modified version of AAPlus, a C# implementation of the AA+ project by PJ Naughter from the algorithms presented in the book "Astronomical Algorithms" by Jean Meeus.
NGC2000 dso catalog and star labels from VizieR as provided by the Strasbourg astronomical Data Center.
Tycho2 catalog from the ESO archive.